Flag for Switzerland Weather past 2 weeks in Liestal, Basel-Land, Switzerland

Now
46 °F

Cool.


Feels Like: 45 °F
Forecast: 36 / 59 °F
Wind: 3 mph from Northwest

Location: Bale-Mulhouse

Current Time: Oct 26, 2014 at 7:14:33 AM

Latest Report: Oct 26, 2014 at 6:30 AM


Visibility: 2 mi

Pressure: 30.27 "Hg

Humidity: 100%

Dew point: 46 °F

Location of LiestalLocation

Historic Weather in Liestal — Graph

°F

Liestal temperature yesterday

Maximum temperature yesterday: 61 °F (at 3:00 PM)
Minimum temperature yesterday: 48 °F (at 12:00 AM)
Average temperature yesterday: 52 °F

Past Weeks' High & Low Weather Summary

 TemperatureHumidityPressure
High75 °F (Oct 18, 4:30 PM)100% (Oct 11, 9:30 AM)30.30 "Hg (Oct 11, 9:30 AM)
Low34 °F (Oct 24, 5:00 AM)44% (Oct 23, 3:30 PM)29.74 "Hg (Oct 13, 5:00 AM)
Average56 °F85%30.03 "Hg
* Reported Oct 11 7:00 AM — Oct 26 6:12 AM, Liestal, Weather by CustomWeather, © 2014

Note: Actual official high and low records may vary slightly from our data, if they occured in-between our weather recording intervals... More about our weather records

Advertising

Liestal weather history for previous 24 hours

 ConditionsComfort  
Time TempWeatherWind HumidityBarometerVisibility
6:12 AM
Oct 26
46 °FCool.3 mph93%30.27 "Hg2 mi
6:00 AM45 °FQuite cool.3 mph100%30.27 "Hg2 mi
5:30 AM46 °FCool.3 mph93%30.27 "Hg1 mi
5:00 AM46 °FCool.2 mph100%30.27 "Hg1 mi
4:30 AM46 °FCool.2 mph100%30.27 "Hg1 mi
4:00 AM46 °FFog.2 mph100%30.24 "Hg0 mi
3:30 AM48 °FFog.2 mph94%30.24 "Hg0 mi
3:00 AM48 °FFog.2 mph94%30.24 "Hg0 mi
2:30 AM48 °FFog.3 mph94%30.27 "Hg1 mi
2:00 AM48 °FLow clouds.3 mph94%30.27 "Hg1 mi
2:30 AM48 °FFog.2 mph100%30.27 "Hg2 mi
2:00 AM50 °FFog.No wind94%30.24 "Hg3 mi
1:30 AM50 °FFog.No wind94%30.24 "Hg2 mi
1:00 AM52 °FOvercast.2 mph94%30.24 "Hg4 mi
12:30 AM52 °FMostly cloudy.No wind94%30.24 "Hg4 mi
12:00 AM52 °FPassing clouds.No wind100%30.24 "Hg6 mi
11:30 PM
Oct 25
52 °FPassing clouds.1 mph100%30.24 "Hg6 mi
11:00 PM52 °FPassing clouds.No wind94%30.21 "Hg6 mi
10:30 PM52 °FPassing clouds.3 mph94%30.21 "Hg6 mi
10:00 PM52 °FPartly cloudy.1 mph94%30.21 "Hg6 mi
9:30 PM52 °FPassing clouds.2 mph94%30.21 "HgN/A
9:00 PM54 °FPassing clouds.No wind88%30.21 "HgN/A
8:30 PM54 °FLight rain. Passing clouds.2 mph88%30.18 "HgN/A
8:00 PM54 °FLight rain. Passing clouds.6 mph88%30.18 "HgN/A
7:30 PM54 °FLight rain. Passing clouds.2 mph82%30.18 "HgN/A
7:00 PM55 °FLight rain. Partly sunny.3 mph88%30.15 "HgN/A
6:30 PM57 °FPartly sunny.2 mph77%30.15 "HgN/A
6:00 PM59 °FPartly sunny.2 mph72%30.15 "HgN/A
5:30 PM59 °FPartly sunny.No wind68%30.15 "HgN/A
5:00 PM59 °FPartly sunny.1 mph68%30.15 "HgN/A
4:30 PM59 °FSunny.2 mph68%30.15 "Hg10 mi
4:00 PM61 °FSunny.3 mph68%30.15 "Hg10 mi
3:30 PM61 °FPartly sunny.3 mph63%30.12 "HgN/A
3:00 PM61 °FPartly sunny.1 mph63%30.12 "HgN/A
2:30 PM59 °FPassing clouds.3 mph68%30.12 "HgN/A
2:00 PM59 °FPassing clouds.3 mph68%30.15 "HgN/A
1:30 PM59 °FScattered clouds.3 mph68%30.15 "HgN/A
1:00 PM55 °FSunny.2 mph77%30.15 "Hg10 mi
12:30 PM54 °FPartly sunny.3 mph82%30.15 "HgN/A
12:00 PM54 °FBroken clouds.5 mph82%30.15 "HgN/A
11:30 AM52 °FBroken clouds.7 mph82%30.15 "Hg6 mi
11:00 AM50 °FLight rain. Broken clouds.5 mph88%30.15 "Hg5 mi
10:30 AM50 °FLight rain. Broken clouds.5 mph88%30.15 "Hg4 mi
10:00 AM50 °FLight rain. Broken clouds.2 mph82%30.15 "Hg6 mi
9:30 AM50 °FSunny.2 mph82%30.15 "Hg10 mi
9:00 AM48 °FClear.2 mph87%30.12 "Hg10 mi
8:30 AM48 °FClear.2 mph87%30.12 "Hg10 mi
8:00 AM48 °FClear.3 mph87%30.12 "Hg10 mi
7:30 AM48 °FClear.3 mph87%30.09 "Hg10 mi
7:00 AM48 °FClear.3 mph87%30.09 "Hg10 mi
Weather by CustomWeather, © 2014

See weather overviewHow to use our weather pages